Location: Biltmore Gardens
(41.6070°N, 83.4666°W)
Time: 20:53:36
(UTC+00:00)

Explorer 11/Cluster Stage 4 - All Passes

Search period start: 17 April 2021 00:00
Search period end: 27 April 2021 00:00
Orbit: 467 x 1257 km, 28.8° (Epoch: 17 April)

Date Brightness Start Highest point End Pass type
(mag) Time Alt. Az. Time Alt. Az. Time Alt. Az.
17 Apr - 14:04:32 10° SSW 14:07:44 17° SSE 14:11:22 10° SE daylight
17 Apr - 15:51:11 10° SW 15:55:30 23° S 16:00:32 10° SE daylight
17 Apr - 17:39:23 10° SW 17:43:33 18° SSW 17:48:13 10° SSE daylight
18 Apr - 13:53:35 10° SSW 13:56:39 17° SSE 14:00:06 10° SE daylight
18 Apr - 15:40:23 10° SW 15:44:23 21° S 15:49:02 10° SE daylight
18 Apr - 17:28:50 10° SW 17:32:23 16° SSW 17:36:19 10° SSE daylight
19 Apr - 13:42:42 10° SSW 13:45:34 17° S 13:48:49 10° SE daylight
19 Apr - 15:29:39 10° SW 15:33:17 20° S 15:37:30 10° SE daylight
19 Apr - 17:18:29 10° SW 17:21:14 13° SSW 17:24:13 10° S daylight
20 Apr - 13:31:49 10° SSW 13:34:31 16° S 13:37:33 10° SE daylight
20 Apr - 15:18:58 10° SW 15:22:13 17° S 15:25:55 10° SE daylight
20 Apr - 17:08:41 10° SSW 17:10:06 11° SSW 17:11:36 10° S daylight
21 Apr - 13:20:59 10° SSW 13:23:30 15° S 13:26:15 10° SE daylight
21 Apr - 15:08:22 10° SW 15:11:10 15° S 15:14:16 10° SSE daylight
22 Apr - 13:10:12 10° SSW 13:12:29 15° S 13:14:58 10° SE daylight
22 Apr - 14:57:55 10° SW 15:00:07 13° S 15:02:31 10° SSE daylight
23 Apr - 12:59:26 10° SSW 13:01:29 14° S 13:03:40 10° SSE daylight
23 Apr - 14:47:46 10° SSW 14:49:05 11° S 14:50:28 10° S daylight
24 Apr - 12:48:44 10° SSW 12:50:29 13° S 12:52:19 10° SSE daylight
25 Apr - 12:38:06 10° SSW 12:39:29 12° S 12:40:55 10° SSE daylight
26 Apr - 10:40:18 10° S 10:41:02 10° S 10:41:46 10° SSE daylight
26 Apr - 12:27:39 10° SSW 12:28:29 11° S 12:29:21 10° S daylight
